SL-16 DEB, 22816

Orbit data source: Space-Track

SL-16 DEB, 22816 is space debris in LEO originally from a launch on Fri, 25 Dec 1992 UTC launched from the Tyuratam Missile And Space Complex (TTMTR). Debris objects in space refer to the collection of defunct objects orbiting the Earth. Examples of debris include non-operational satellites, rocket bodies, and fragments generated from explosions, collisions, or faulty payload assembly.

Loading next visibility...
Identifier
22816, 1992-093JC
Orbit
LEO
Country
Flag of CISCIS
Related business
Manufacturer
Unknown
Mission
Spacecraft
Bus & Motor
Unknown
Mass
Unknown
Launch date (UTC)
1992-12-25 (33 years ago)
Launch vehicle
Unknown
Launch site
Tyuratam Missile And Space Complex (TTMTR)
Object type
Payload
Rocket body
Debris
Shape & HBR
Unknown shape, 0.1 m
Radar Cross Section
Medium (>0.1 m² and <1 m²)

Expand to show TLE details & history
Last TLE update: 3 days ago

TLE from 3 days ago
0 SL-16 DEB
1 22816U 92093JC  26171.19250984  .00028906  00000-0  33228-2 0  9992
2 22816  71.4417  96.9866 0035135 316.6321  43.2077 14.85237747710164
Epoch: 2026-06-20T04:37Z
TLE epoch observation values (Epoch: 2026-06-20T04:37:12.850Z)
Latitude
-0.00003°
Longitude
119.27239°
Altitude
597.483 km
Speed
7.571 km/s
True Right ascension
06h 27m 56s
True Declination
0° 00' 00"
Sunlit
Object was in daylight at epoch
Visualization orbit readout
Latitude
Unknown
Longitude
Unknown
Altitude
Unknown
Speed
Unknown
Apparent Right ascension
Unknown
Apparent Declination
Unknown
Sunlit
N/A
Visualization observer readout
Local Sidereal Time
10:02:26
Azimuth
Unknown
Elevation
Unknown
Doppler factor
Unknown
Orbital elements
Apogee altitude
635.207 km
Perigee altitude
586.097 km
Semi-major axis
6,988.789 km
Eccentricity
0.00351
Inclination
71.4417°
RAAN
96.9866°
Arg. of periapsis
316.6321°
True anomaly
43.48423°
Mean anomaly
43.2077°
Eccentric anomaly
43.34588°
Mean motion
3.71484 °/min
Orbital period
96.91 mins
BSTAR
0.0033228
Loading maneuver chart data...
Computing Atmospheric mass density...
Loading historical data...
Loading historical data...
Loading historical data...
Loading historical data...
Loading historical data...
Loading historical data...
Loading historical data...

Documentation

Showing up to 5 results
|